STARLINK-1036, 44741

Orbit data source: Space-Track

STARLINK-1036, 44741 is a payload satellite owned by SpaceX/Seattle (US) in LEO that was launched on Mon, 11 Nov 2019 UTC via an FALCON 9 launch vehicle from the Air Force Eastern Test Range (AFETR). Payload-class satellites include a variety of spacecraft equipped with specific instruments for various scientific and technological missions. These include communications satellites like Starlink; space stations such as the ISS; scientific satellites like the Hubble; Earth observation satellites from companies like Planet Labs, Umbra, and HawkEye 360; GPS; miniature CubeSats for education and research; and military/defense satellites.

Loading next visibility...
Identifier
44741, 2019-074AE
Orbit
LEO
Country
Flag of USUS
Related business
Manufacturer
SpaceX/Seattle
Mission
Partially operational Commercial Communications
Bus & Motor
STARLINK, Unknown motor
Mass
260 kg wet, ~248 kg dry
Launch date (UTC)
2019-11-11 (7 years ago)
Launch vehicle
FALCON 9
Launch site
Air Force Eastern Test Range (AFETR)
Object type
Payload
Rocket body
Debris
Shape & HBR
Box + 1 Pan, 10.1 m
Radar Cross Section
13.562 m², Large (>1 m²)

Expand to show TLE details & history
Last TLE update: 9 hours ago

TLE from 9 hours ago
0 STARLINK-1036
1 44741U 19074AE  26169.93208938  .00046323  00000-0  37443-3 0  9999
2 44741  53.0428  52.0464 0002935  33.6434 326.4769 15.70380807364578
Epoch: 2026-06-18T22:22Z
TLE epoch observation values (Epoch: 2026-06-18T22:22:12.522Z)
Latitude
0.00002°
Longitude
169.32591°
Altitude
357.062 km
Speed
7.697 km/s
True Right ascension
03h 28m 11s
True Declination
0° 00' 00"
Sunlit
Object was in daylight at epoch
Visualization orbit readout
Latitude
Unknown
Longitude
Unknown
Altitude
Unknown
Speed
Unknown
Apparent Right ascension
Unknown
Apparent Declination
Unknown
Sunlit
N/A
Visualization observer readout
Local Sidereal Time
17:52:08
Azimuth
Unknown
Elevation
Unknown
Doppler factor
Unknown
Orbital elements
Apogee altitude
360.065 km
Perigee altitude
356.111 km
Semi-major axis
6,736.225 km
Eccentricity
0.00029
Inclination
53.0428°
RAAN
52.0464°
Arg. of periapsis
33.6434°
True anomaly
326.45832°
Mean anomaly
326.4769°
Eccentric anomaly
326.46761°
Mean motion
3.92571 °/min
Orbital period
91.7 mins
BSTAR
0.00037443
Loading maneuver chart data...
Computing Atmospheric mass density...

Documentation

Showing up to 5 results
|